Simultaneous Nadir Overpasses (SNOs) Predictions

Prediction of SNOs between FY3D and NOAA-19 Satellite Orbit:

Table of predicted SNOs for the next 14.0 days since TLE Epoch: 5/1/2021
Index Date (FY3D) Time (FY3D) Lat,Lon (FY3D) SZA (FY3D ) Date (NOAA-19) Time (NOAA-19) Lat,Lon (NOAA-19) SZA (NOAA-19 ) Distance(km) Time Diff (sec)
1 05/09/2021 10:24:01 -78.48, 179.20 117.99 05/09/2021 10:22:48 -78.50, 178.28 117.86 20.69 73
2 05/09/2021 11:14:49 78.59, -14.15 62.16 05/09/2021 11:13:49 78.56, -14.09 62.15 3.41 60
3 05/09/2021 12:05:32 -78.56, 153.36 117.90 05/09/2021 12:04:46 -78.59, 153.34 117.86 3.22 46
4 05/09/2021 12:56:18 78.59, -39.53 62.14 05/09/2021 12:55:49 78.57, -39.50 62.13 1.97 29
5 05/09/2021 13:47:02 -78.60, 127.75 117.86 05/09/2021 13:46:47 -78.56, 127.69 117.88 3.86 15
6 05/09/2021 14:37:47 78.59, -64.91 62.12 05/09/2021 14:37:49 78.59, -64.91 62.12 0.55 2
7 05/09/2021 15:28:31 -78.60, 102.37 117.88 05/09/2021 15:28:47 -78.58, 102.28 117.90 3.10 16
8 05/09/2021 16:19:16 78.59, -90.29 62.11 05/09/2021 16:19:49 78.60, -90.31 62.10 0.94 33
9 05/09/2021 17:10:00 -78.60, 76.99 117.90 05/09/2021 17:10:47 -78.59, 76.87 117.91 2.91 47
10 05/09/2021 18:00:45 78.59,-115.67 62.09 05/09/2021 18:01:49 78.61,-115.72 62.09 2.36 64
11 05/09/2021 18:51:33 -78.75, 50.67 117.70 05/09/2021 18:52:44 -78.71, 52.19 117.90 33.43 71



Historial Predications of SNOs between FY3D and NOAA-19
